Wind_Speed
114 113 113 113 114 114 115 115 116 116 116 115 115 115 115 115 115 115 115 115 115 116 117 118 119 121 122 123 123 124 126 128 131 134 136 137 138 138 137 137 136 134 132 133 137 138 136 136 136 134 133 132 131 130 129 128 129 128 127 127 126 126 125
111 111 110 110 110 111 111 112 112 113 113 114 114 114 114 114 114 114 114 114 114 115 116 116 117 118 120 122 123 124 125 127 129 132 135 138 139 140 140 140 139 137 135 135 139 141 140 140 140 138 136 136 136 135 134 132 131 131 131 130 130 129 129
108 108 109 108 108 108 109 109 109 109 110 111 112 113 113 113 114 113 113 113 114 114 115 115 115 116 117 119 120 122 124 126 128 130 132 135 138 140 141 142 142 140 137 137 141 144 144 144 145 143 141 140 140 139 138 137 136 135 134 133 133 133 132
105 105 106 106 106 106 107 107 107 107 107 108 109 110 110 111 112 112 113 113 113 114 114 114 114 115 116 117 118 119 121 124 126 128 130 133 135 138 140 142 143 142 140 139 141 144 146 147 149 148 146 145 145 143 143 142 140 139 139 138 137 136 136
101 101 102 102 103 103 104 104 104 105 105 106 106 107 107 108 109 110 111 111 112 113 113 113 113 114 115 115 116 117 119 121 123 126 128 130 132 135 137 140 142 142 141 141 141 143 146 148 151 152 151 151 150 149 147 147 146 144 144 142 141 140 139
96 97 97 98 98 99 100 101 102 102 102 103 104 104 104 105 106 107 108 109 110 111 111 112 113 113 115 115 115 116 118 119 121 122 124 126 129 132 134 136 138 140 140 141 141 143 145 148 150 152 153 154 155 154 152 151 150 149 148 148 147 146 144
91 92 93 93 94 95 96 96 98 99 99 100 100 100 101 101 103 104 105 105 107 108 109 110 111 112 114 115 115 116 117 118 118 119 120 123 125 128 130 133 135 137 138 139 140 141 144 147 150 152 153 155 157 157 156 155 154 153 153 152 152 151 149
87 87 88 88 89 90 92 93 94 95 96 96 96 97 97 97 98 99 100 101 103 105 106 107 109 110 112 114 115 116 117 117 117 118 118 119 121 124 126 128 130 133 135 136 137 139 141 144 148 151 153 154 157 158 158 157 157 157 156 156 156 155 154
84 84 84 84 85 85 86 87 89 91 92 92 92 93 93 93 94 94 95 96 98 101 103 104 106 108 110 111 113 114 115 116 117 117 117 117 119 120 121 123 125 127 130 131 133 135 138 141 144 148 151 153 156 158 158 158 159 159 159 159 159 158 157
81 80 80 80 81 81 82 82 83 85 86 87 88 88 89 88 89 90 91 92 94 97 99 101 103 105 107 108 110 111 113 115 116 116 116 116 117 117 117 118 120 122 124 126 128 130 133 137 139 143 147 150 153 155 157 159 160 160 160 160 161 160 159
78 77 76 76 76 77 78 78 79 79 80 81 82 83 83 84 85 87 88 89 91 94 96 98 100 101 103 105 107 108 110 111 113 114 115 115 116 116 115 114 115 116 119 121 123 125 128 131 134 138 143 146 149 152 155 156 158 160 160 160 161 161 160
75 75 74 73 73 73 74 74 75 74 75 76 77 77 78 79 80 83 85 87 89 90 92 94 96 98 99 101 104 106 107 107 109 110 111 112 113 114 113 113 113 113 115 116 118 120 122 125 128 133 138 142 144 147 150 152 154 157 158 159 159 160 161
73 73 72 71 70 70 70 71 71 70 71 71 72 73 74 73 74 78 81 84 86 88 89 91 93 95 96 98 100 102 103 103 105 106 108 109 109 110 111 112 112 113 114 114 114 115 117 120 124 127 132 136 140 143 146 147 149 151 154 155 156 158 160
71 71 70 69 68 68 68 68 67 67 68 68 69 71 71 70 70 72 75 79 82 85 87 88 90 91 92 94 96 98 100 100 101 102 103 104 105 105 107 108 110 112 113 114 113 112 112 115 120 122 126 130 135 139 141 142 143 146 149 151 152 154 156
69 68 67 66 65 65 66 67 66 66 66 67 67 68 67 67 67 69 71 74 77 80 82 84 86 87 88 90 92 94 96 97 97 97 98 100 100 101 103 105 107 109 111 112 112 111 110 113 116 118 121 125 130 133 135 136 139 142 144 146 147 148 151
66 65 64 63 62 62 63 65 64 65 65 66 65 64 63 64 65 66 68 70 72 74 76 78 81 83 85 87 89 90 92 93 92 92 93 95 97 99 101 103 104 107 108 108 108 108 109 111 114 117 119 122 125 126 128 130 134 136 138 139 140 141 144
63 62 60 59 59 59 61 63 63 63 63 63 63 61 61 62 63 63 65 66 68 69 71 74 77 79 81 82 84 86 88 90 90 89 89 91 94 97 98 99 101 104 105 104 104 106 107 109 112 115 118 120 122 123 123 125 127 128 129 131 132 134 137
62 60 57 56 56 57 59 62 63 61 60 60 60 59 59 60 60 61 61 62 64 66 69 71 73 74 74 76 79 83 86 87 88 87 86 88 91 93 94 96 98 100 101 102 103 104 105 106 109 112 114 116 118 120 120 120 120 119 121 124 126 128 131
60 59 56 53 54 55 58 61 62 59 57 57 58 57 56 57 58 59 59 60 62 64 65 66 67 68 69 71 74 79 82 84 85 85 84 86 88 89 91 93 95 96 97 99 100 101 102 104 105 108 110 112 113 115 116 116 114 113 116 119 121 123 125
58 57 54 52 53 55 57 59 59 57 55 55 54 53 53 54 55 56 57 59 60 60 60 60 62 63 65 67 71 75 77 78 80 81 81 82 84 87 90 91 91 91 92 94 95 96 98 100 101 103 106 107 109 110 111 112 111 110 112 115 116 117 119
55 54 52 50 52 55 57 57 56 56 54 52 51 50 50 52 53 54 56 57 56 56 57 57 58 60 62 65 67 69 71 73 75 75 76 79 82 85 87 87 86 86 87 89 90 91 93 95 97 99 101 103 105 107 108 108 107 107 109 111 112 113 115
52 50 49 49 51 55 56 54 54 54 52 50 48 48 48 49 51 51 53 54 54 54 54 55 56 57 59 61 63 64 66 69 70 71 73 75 78 79 80 80 81 81 82 84 85 86 88 90 92 94 96 98 101 104 106 106 105 106 107 108 108 110 112
48 47 47 48 50 53 54 52 51 51 50 47 46 46 46 47 48 49 50 52 52 51 52 53 54 55 56 57 59 61 62 64 66 67 69 70 71 72 73 74 76 78 79 80 82 82 84 85 87 89 91 94 96 99 101 102 103 103 105 106 106 107 109
45 44 45 47 49 50 50 49 48 48 47 45 45 45 45 44 45 46 48 49 49 49 49 50 52 52 53 54 56 57 58 60 61 63 64 65 66 67 68 70 72 73 74 75 77 78 79 81 83 84 86 88 91 93 95 97 98 99 100 101 103 104 106
44 42 43 46 48 48 46 45 44 44 45 44 43 43 43 43 43 44 45 46 46 47 47 47 49 50 51 52 53 54 55 56 57 59 60 61 62 63 65 66 67 68 69 71 72 74 75 77 78 80 82 84 86 88 89 90 92 94 95 96 98 100 102
42 40 41 44 46 47 45 42 40 40 42 42 42 42 41 41 41 42 42 43 43 44 44 45 46 47 48 49 50 51 52 53 54 56 57 58 59 60 61 63 64 65 66 67 69 70 71 73 74 76 78 80 81 83 84 85 87 88 90 92 94 96 97
40 38 39 42 44 45 44 41 38 38 39 39 40 40 40 40 40 40 40 40 41 41 42 43 44 45 45 46 48 49 50 51 52 53 54 56 57 58 59 60 61 63 63 64 65 66 67 68 70 72 73 75 77 79 80 81 83 84 86 87 89 90 92
41 36 35 38 40 41 41 40 38 36 36 36 37 38 38 38 38 38 38 38 38 39 40 41 41 42 43 44 45 46 47 49 50 51 52 53 55 56 57 58 58 59 60 61 61 62 63 64 65 67 68 70 72 74 76 77 79 80 82 83 85 86 88
45 40 36 35 36 37 37 37 36 35 35 35 35 35 35 36 36 37 37 36 37 37 38 38 39 40 41 42 42 43 44 46 47 48 50 51 52 53 54 55 55 56 57 58 59 60 61 62 63 64 65 66 68 70 71 73 74 76 78 79 81 82 84
46 44 40 37 36 35 34 33 33 33 33 33 33 33 33 34 34 35 35 35 35 35 35 36 37 37 38 39 40 41 42 43 44 46 47 48 49 50 51 52 53 54 55 56 57 58 59 60 61 62 63 64 65 66 67 69 70 71 73 74 76 78 79
41 41 41 38 36 35 34 32 31 31 31 31 31 31 32 32 33 33 33 33 33 33 33 34 34 35 36 36 37 38 39 41 42 43 44 45 46 47 48 49 50 51 52 53 53 54 55 57 58 60 61 62 62 63 64 65 66 67 68 70 71 73 74
39 37 37 36 34 34 34 31 30 30 30 29 29 29 30 30 31 31 31 31 31 31 31 32 32 33 34 34 35 36 37 38 39 40 41 42 43 44 45 46 47 48 49 50 50 51 52 54 55 57 58 59 60 61 62 62 63 64 66 67 67 69 70
41 37 36 34 32 31 31 31 29 28 29 29 28 28 27 28 28 29 29 29 29 29 30 30 31 31 32 32 33 34 35 36 36 37 38 39 40 41 42 43 44 45 46 47 48 49 50 51 52 54 55 56 58 58 59 61 62 63 64 64 65 66 67
36 36 35 34 32 30 29 30 29 28 27 28 27 26 26 26 26 27 27 27 27 28 28 28 29 30 30 30 31 32 32 33 34 35 36 37 38 39 40 41 42 43 43 44 45 46 47 48 49 50 52 53 54 56 58 59 60 61 61 62 62 63 64
32 31 31 31 31 30 28 28 28 27 27 27 26 25 24 24 24 25 25 26 26 26 27 27 28 28 29 29 29 30 31 31 32 33 34 35 35 36 38 39 40 40 41 43 43 44 45 46 47 48 49 51 52 54 56 57 59 59 60 60 60 61 61
32 31 30 29 29 28 27 27 26 26 26 26 25 24 23 23 23 24 24 24 25 25 25 26 26 27 27 28 28 29 29 30 31 31 32 33 33 35 36 37 38 39 40 41 42 43 44 44 45 46 47 49 50 52 53 54 55 56 57 58 58 58 58
Wind_Direction
272 271 270 269 269 268 267 267 266 266 265 264 264 263 262 261 261 260 259 258 257 256 254 253 252 251 250 248 247 245 243 242 241 240 240 239 239 239 238 237 236 235 233 234 238 240 240 240 240 240 241 241 241 240 238 237 237 237 237 237 237 236 236
273 272 271 270 269 268 267 266 266 265 264 264 263 262 261 261 260 259 258 258 257 256 255 254 252 251 250 249 248 246 245 243 242 241 240 239 239 239 239 239 238 236 234 233 235 238 239 240 241 240 240 240 241 241 240 239 238 237 237 237 237 237 237
273 272 272 271 270 269 268 267 266 265 264 263 262 262 261 260 259 259 258 257 257 256 255 254 253 252 251 250 248 247 246 245 243 242 241 240 240 239 239 239 239 238 236 233 233 235 237 239 240 240 239 239 240 240 241 240 239 238 237 237 236 237 237
273 272 272 271 270 269 268 267 266 265 264 263 262 261 260 260 259 258 257 257 256 256 255 255 254 253 252 251 250 248 247 246 244 243 242 241 240 240 239 239 239 239 238 235 234 234 235 236 238 240 240 239 239 239 240 240 240 240 239 238 237 236 236
273 273 272 271 270 269 268 268 267 265 264 263 262 261 260 260 259 258 257 256 256 255 255 255 254 253 253 252 251 249 248 247 245 244 243 242 241 241 240 240 239 239 239 237 235 234 234 235 236 238 239 239 240 239 239 239 239 240 240 239 239 238 237
274 273 272 271 270 269 268 268 267 266 265 263 262 261 260 260 259 258 258 257 256 255 255 254 253 253 253 252 251 250 249 248 247 246 244 243 242 242 241 240 240 240 239 238 237 236 235 235 236 237 238 239 239 240 239 239 239 239 239 240 240 239 238
275 273 272 271 270 269 268 267 266 266 265 264 263 262 261 260 259 258 258 257 257 256 255 254 253 253 252 252 251 251 250 249 248 247 246 245 243 242 242 241 240 240 240 239 238 237 236 236 236 236 237 238 239 240 240 240 240 240 240 240 240 240 239
276 275 274 273 271 270 269 267 266 266 265 264 264 263 261 260 259 259 258 257 257 256 255 254 253 253 252 251 251 250 250 250 249 248 247 246 245 244 243 242 241 241 240 240 239 238 237 237 236 236 236 237 238 239 240 240 240 240 240 240 240 240 240
278 277 276 275 274 272 271 269 268 267 266 265 264 263 262 262 261 260 259 258 257 256 256 255 254 253 252 251 251 250 249 249 249 249 248 247 246 245 244 243 242 241 241 240 239 239 238 237 237 237 237 237 237 238 239 240 240 240 240 241 241 241 241
278 278 277 276 275 274 273 272 270 268 267 266 265 264 263 262 262 260 259 258 257 256 255 254 253 253 252 252 251 250 249 249 248 248 248 247 247 246 245 244 243 243 242 241 240 239 239 238 238 238 238 238 237 238 239 239 240 241 241 241 241 241 241
280 279 278 277 276 275 274 273 271 270 269 268 266 265 263 262 261 260 259 258 257 255 255 254 253 253 252 252 251 250 250 249 248 248 248 248 247 247 247 246 245 244 243 242 241 240 239 239 238 238 238 238 238 238 238 239 239 240 241 241 241 241 241
282 281 280 278 277 276 275 273 272 271 270 269 267 265 263 262 260 260 259 257 256 255 254 254 253 252 251 251 251 250 250 249 249 249 248 248 247 247 247 246 246 245 244 243 242 241 240 240 239 238 238 238 238 238 238 238 239 240 241 241 241 242 242
284 283 282 280 279 278 277 275 273 272 270 269 267 266 263 261 259 258 257 256 255 255 254 253 252 252 251 251 250 251 250 249 249 249 248 248 247 247 247 246 246 245 245 244 242 241 240 240 239 238 238 238 238 239 238 238 238 239 240 241 241 241 242
285 284 283 282 281 281 279 277 275 273 271 269 266 265 263 261 259 257 256 256 255 254 254 253 252 252 252 251 251 251 250 249 249 248 249 249 248 248 247 246 246 245 245 244 243 242 241 240 240 239 238 238 238 238 239 239 239 239 239 240 240 241 241
285 285 284 283 283 282 280 279 277 275 272 269 267 265 263 262 260 258 256 255 254 254 253 253 253 252 252 252 251 251 251 250 249 248 248 248 248 247 247 246 246 245 244 244 244 243 241 241 240 240 239 238 238 238 238 239 239 238 238 239 239 240 241
286 286 285 285 284 282 281 279 277 274 272 270 269 267 265 263 260 258 256 255 254 254 253 253 252 252 251 251 251 251 251 251 250 248 248 248 247 246 246 245 245 245 245 244 243 243 242 241 241 240 240 239 239 238 238 238 239 239 239 239 239 240 241
288 288 287 287 286 284 282 279 276 274 272 271 270 269 267 264 262 260 257 256 255 254 253 252 251 250 250 250 251 251 251 250 249 248 247 246 246 246 245 244 244 244 245 244 243 242 241 241 240 240 240 240 240 239 238 238 238 239 239 239 240 240 240
291 290 290 289 287 285 282 279 276 274 273 273 271 270 268 266 265 262 260 258 256 253 252 251 250 250 250 249 249 249 249 249 249 248 246 246 246 246 245 244 244 243 243 243 243 242 241 241 240 240 240 240 240 240 240 239 239 238 239 239 239 239 239
293 293 292 291 289 285 282 279 278 277 275 274 272 271 270 268 266 265 262 259 257 254 253 252 252 251 250 249 248 248 248 248 248 248 246 246 246 246 245 244 243 243 243 242 242 242 242 241 241 241 241 241 241 241 241 241 240 239 238 238 238 238 238
295 294 294 293 290 286 282 280 280 279 277 275 273 272 271 269 267 265 263 260 258 257 255 254 252 251 249 248 247 247 247 248 248 247 246 245 245 245 245 244 244 243 243 243 242 242 242 242 241 241 241 242 242 242 242 241 241 240 239 238 238 238 237
296 295 295 294 290 286 283 282 281 280 278 277 276 274 272 269 267 265 264 262 261 259 258 255 253 251 250 248 247 247 247 247 247 247 246 245 244 244 244 245 245 244 244 243 243 242 241 241 241 241 240 241 242 243 243 242 241 240 239 239 238 238 238
297 297 296 293 289 286 284 283 283 282 281 280 279 276 273 270 268 266 265 264 262 260 258 256 254 252 251 250 249 248 247 247 247 246 245 244 244 244 245 245 245 245 244 243 243 242 241 241 240 240 240 239 240 241 242 242 241 240 240 239 239 238 238
299 299 297 293 288 286 285 285 285 284 284 283 281 277 274 271 269 267 265 264 262 260 259 257 256 254 252 251 250 249 248 247 247 247 246 246 245 245 245 244 244 243 243 242 242 242 241 241 240 240 239 239 239 239 240 240 240 240 240 239 239 238 238
303 302 298 293 289 287 287 288 288 287 286 284 280 278 275 272 270 267 265 264 263 261 258 257 256 255 253 252 251 250 249 248 248 247 246 246 245 245 244 243 242 242 241 241 241 240 240 240 239 239 239 239 239 239 239 239 239 239 239 239 239 239 239
306 304 300 295 292 290 290 290 290 289 286 284 281 278 276 273 270 268 267 265 263 261 259 257 255 254 253 252 251 250 249 248 248 247 246 246 245 244 243 242 242 241 241 240 240 239 238 238 238 238 238 238 238 238 238 238 239 239 238 238 238 238 238
308 306 302 297 294 293 293 292 291 288 286 284 282 280 277 274 272 270 268 265 264 262 259 257 255 254 252 251 250 249 248 247 247 246 246 245 244 244 243 242 241 240 239 239 238 238 237 237 236 236 236 236 236 237 237 237 237 237 237 237 237 236 237
309 307 303 298 296 296 295 295 293 289 286 284 282 280 278 276 273 271 268 266 264 261 259 257 255 254 252 250 249 248 247 246 245 245 244 244 244 243 242 241 241 240 239 239 238 237 236 236 235 235 235 235 235 235 235 235 235 235 236 236 236 235 235
310 308 303 299 297 296 296 296 294 291 288 285 283 281 279 277 274 272 269 266 263 261 259 257 255 254 252 251 249 248 247 246 245 244 244 243 243 242 241 241 240 240 240 239 238 237 236 236 235 235 234 234 234 234 234 233 233 233 234 234 234 234 234
312 310 307 302 299 297 296 296 295 292 290 287 284 282 279 277 274 272 269 266 264 261 259 257 255 254 252 251 249 248 247 246 245 244 244 243 242 242 241 241 240 239 239 238 238 237 235 234 234 233 233 232 233 233 232 232 232 231 232 232 233 233 233
312 311 309 307 304 300 298 296 295 293 291 288 285 283 280 277 275 272 269 266 264 262 259 257 256 253 252 251 249 248 247 246 245 244 244 243 243 242 242 241 240 239 238 238 237 236 235 234 233 232 231 231 231 231 231 231 231 230 230 231 231 231 232
311 311 310 309 307 305 302 300 298 295 293 290 287 284 281 278 275 272 270 267 265 262 260 257 255 253 251 250 249 247 246 245 244 243 243 243 242 242 241 241 240 239 238 237 237 237 236 235 234 232 231 230 229 229 229 229 229 229 229 229 229 230 230
311 311 309 308 308 306 304 303 301 298 295 292 288 285 282 279 276 273 270 267 265 262 260 257 254 252 250 249 247 246 245 244 242 242 241 241 240 240 240 240 240 239 238 237 236 236 236 235 234 233 232 230 229 228 227 227 227 227 227 227 227 227 228
312 313 312 310 309 307 305 304 303 300 298 294 291 287 283 280 277 274 271 268 264 261 259 256 253 251 248 247 245 245 244 243 242 241 240 239 238 238 238 238 238 238 238 236 235 234 234 234 234 233 232 231 229 228 227 226 225 225 225 225 225 225 226
312 314 314 314 313 310 308 306 304 303 300 297 293 288 284 281 277 274 271 267 264 260 257 254 251 249 247 245 244 243 242 242 241 240 239 239 237 237 237 236 236 236 236 235 234 233 232 232 231 231 231 230 229 227 226 225 224 223 223 223 223 223 224
315 314 315 315 314 313 311 308 306 304 303 299 294 290 286 282 278 274 270 266 263 259 255 252 250 247 245 244 242 241 240 240 240 239 239 238 237 237 236 235 235 234 234 233 232 231 230 230 229 229 229 228 227 226 225 224 224 223 222 221 221 221 222
320 319 318 317 316 315 313 310 307 306 304 301 296 291 287 283 279 274 269 265 261 257 254 251 248 246 244 242 240 239 238 238 238 238 238 237 236 236 235 234 233 233 232 231 230 229 228 227 227 227 226 226 225 225 225 224 224 223 222 221 221 220 220
Height
9949 9948 9947 9946 9945 9943 9942 9940 9940 9939 9940 9942 9943 9944 9946 9948 9950 9954 9957 9960 9963 9966 9970 9975 9980 9985 9990 9996 10003 10011 10016 10023 10029 10035 10042 10048 10054 10061 10069 10077 10084 10099 10119 10119 10105 10108 10117 10118 10124 10134 10140 10146 10152 10159 10168 10175 10180 10187 10193 10199 10206 10212 10218
9929 9927 9926 9925 9924 9922 9922 9921 9920 9919 9919 9920 9921 9922 9924 9926 9929 9932 9936 9939 9942 9944 9947 9953 9958 9963 9967 9972 9979 9987 9992 9998 10005 10010 10018 10024 10030 10038 10045 10051 10060 10074 10093 10102 10093 10089 10097 10100 10102 10113 10124 10126 10130 10137 10145 10153 10162 10168 10176 10183 10188 10195 10201
9908 9907 9905 9904 9902 9901 9900 9900 9900 9900 9900 9899 9900 9901 9903 9905 9908 9911 9915 9917 9920 9923 9926 9931 9937 9941 9945 9949 9956 9963 9968 9974 9981 9986 9993 10000 10005 10014 10022 10027 10036 10049 10066 10079 10078 10073 10079 10084 10081 10089 10103 10107 10110 10118 10123 10130 10142 10148 10155 10165 10171 10177 10184
9888 9887 9885 9883 9881 9880 9879 9879 9879 9879 9879 9879 9880 9881 9883 9885 9887 9890 9894 9897 9900 9902 9906 9910 9915 9919 9922 9927 9933 9940 9944 9949 9955 9962 9969 9977 9983 9989 9998 10004 10011 10024 10039 10052 10059 10058 10063 10068 10063 10066 10080 10086 10089 10099 10104 10109 10120 10127 10133 10143 10152 10159 10166
9869 9867 9866 9864 9862 9861 9860 9858 9859 9859 9858 9859 9859 9862 9864 9865 9867 9870 9873 9876 9879 9883 9886 9890 9895 9898 9901 9905 9912 9917 9921 9925 9931 9937 9945 9953 9960 9965 9974 9981 9988 9999 10012 10024 10036 10043 10045 10048 10047 10048 10058 10063 10066 10076 10084 10089 10097 10105 10111 10120 10129 10137 10147
9849 9847 9846 9845 9844 9842 9841 9840 9839 9838 9839 9839 9840 9842 9845 9847 9849 9851 9853 9857 9860 9864 9867 9871 9875 9878 9880 9884 9889 9894 9898 9902 9907 9914 9922 9930 9936 9942 9949 9958 9966 9976 9986 9997 10011 10022 10025 10029 10031 10032 10037 10042 10044 10051 10061 10068 10076 10084 10091 10098 10105 10113 10124
9829 9827 9826 9826 9825 9824 9823 9822 9820 9819 9819 9820 9821 9824 9827 9829 9831 9833 9836 9839 9842 9845 9848 9852 9855 9857 9860 9863 9867 9871 9875 9880 9885 9892 9900 9907 9913 9919 9926 9935 9944 9952 9961 9973 9986 9997 10004 10008 10012 10013 10018 10024 10024 10026 10036 10048 10056 10064 10071 10076 10083 10090 10100
9811 9810 9808 9807 9807 9806 9805 9805 9804 9802 9801 9802 9804 9806 9809 9811 9813 9817 9821 9823 9824 9826 9828 9831 9834 9837 9839 9841 9845 9850 9854 9859 9865 9870 9877 9884 9889 9895 9903 9913 9922 9929 9938 9950 9961 9972 9981 9986 9990 9993 9999 10006 10006 10004 10016 10029 10034 10040 10048 10053 10060 10069 10076
9795 9794 9792 9790 9789 9788 9788 9787 9787 9786 9785 9787 9788 9789 9792 9795 9798 9801 9804 9806 9807 9807 9808 9811 9813 9815 9818 9820 9825 9831 9834 9838 9843 9848 9855 9862 9867 9873 9882 9891 9900 9908 9917 9927 9938 9949 9958 9963 9968 9974 9979 9985 9987 9989 9999 10007 10007 10013 10026 10031 10036 10045 10053
9780 9778 9778 9776 9774 9772 9771 9771 9770 9769 9770 9771 9772 9774 9777 9781 9783 9784 9786 9788 9789 9788 9788 9790 9792 9796 9798 9801 9805 9810 9814 9818 9822 9827 9835 9842 9845 9852 9862 9871 9880 9888 9896 9905 9916 9927 9935 9939 9948 9956 9957 9961 9969 9973 9979 9983 9983 9990 10003 10008 10010 10022 10035
9765 9764 9763 9763 9761 9757 9756 9756 9754 9755 9756 9755 9756 9759 9762 9764 9766 9766 9767 9769 9769 9769 9769 9770 9774 9778 9780 9782 9785 9789 9793 9798 9803 9809 9815 9822 9827 9833 9842 9851 9860 9869 9876 9884 9894 9904 9911 9918 9928 9936 9935 9938 9949 9954 9955 9962 9966 9969 9977 9984 9989 10001 10014
9750 9749 9748 9748 9746 9744 9742 9741 9740 9741 9741 9740 9740 9742 9745 9748 9750 9749 9748 9748 9748 9749 9751 9752 9755 9759 9762 9764 9766 9768 9774 9781 9786 9791 9796 9803 9809 9815 9824 9833 9841 9849 9856 9863 9873 9883 9890 9897 9907 9913 9913 9918 9928 9931 9932 9941 9947 9949 9955 9964 9971 9979 9986
9736 9735 9733 9733 9732 9730 9729 9727 9727 9727 9726 9726 9725 9725 9726 9731 9733 9732 9729 9728 9729 9731 9734 9735 9737 9740 9744 9747 9748 9751 9757 9764 9769 9773 9777 9784 9792 9799 9807 9814 9821 9828 9834 9841 9850 9861 9870 9877 9882 9888 9894 9899 9903 9903 9907 9918 9928 9934 9938 9943 9950 9956 9961
9723 9721 9720 9720 9719 9717 9714 9712 9712 9712 9710 9710 9709 9708 9709 9714 9717 9716 9715 9714 9713 9715 9716 9719 9721 9725 9729 9732 9734 9736 9740 9745 9752 9757 9762 9768 9775 9783 9790 9795 9800 9806 9812 9818 9828 9839 9851 9857 9858 9864 9874 9878 9876 9878 9888 9899 9908 9914 9916 9919 9928 9935 9938
9711 9709 9708 9708 9708 9705 9701 9698 9698 9697 9694 9693 9693 9693 9696 9700 9701 9702 9702 9700 9699 9700 9702 9705 9708 9712 9715 9716 9718 9720 9722 9727 9736 9744 9748 9753 9759 9765 9770 9774 9779 9785 9789 9797 9807 9818 9830 9836 9836 9842 9851 9852 9851 9858 9870 9879 9883 9887 9892 9898 9908 9915 9920
9700 9698 9697 9697 9696 9694 9688 9684 9683 9682 9679 9678 9679 9682 9685 9686 9686 9687 9687 9686 9687 9688 9691 9693 9694 9696 9699 9701 9703 9706 9708 9712 9720 9729 9734 9737 9740 9745 9749 9754 9760 9763 9767 9778 9789 9798 9808 9813 9815 9820 9825 9827 9830 9839 9851 9856 9857 9863 9872 9881 9892 9901 9906
9689 9688 9688 9686 9684 9681 9676 9670 9668 9668 9667 9667 9668 9670 9671 9671 9671 9673 9674 9675 9676 9678 9678 9678 9678 9681 9685 9689 9692 9692 9693 9696 9703 9711 9718 9721 9722 9725 9730 9737 9741 9744 9749 9760 9769 9777 9785 9791 9794 9798 9802 9806 9810 9818 9830 9833 9836 9848 9860 9869 9880 9888 9891
9677 9676 9677 9676 9673 9669 9662 9655 9652 9655 9657 9656 9657 9658 9659 9659 9659 9659 9661 9663 9664 9663 9663 9664 9666 9671 9675 9679 9679 9677 9678 9681 9686 9694 9702 9705 9705 9708 9715 9720 9723 9726 9734 9742 9748 9755 9763 9770 9775 9778 9782 9788 9794 9799 9807 9812 9822 9838 9847 9851 9861 9869 9874
9666 9665 9666 9666 9661 9656 9649 9642 9640 9643 9646 9645 9645 9647 9648 9648 9647 9647 9648 9650 9648 9648 9652 9655 9657 9661 9664 9666 9664 9663 9664 9667 9671 9679 9687 9690 9692 9695 9699 9701 9705 9712 9720 9725 9731 9739 9746 9752 9758 9762 9765 9771 9777 9782 9788 9796 9809 9824 9828 9830 9840 9851 9857
9657 9655 9655 9654 9650 9642 9637 9632 9630 9632 9634 9634 9635 9637 9638 9636 9635 9635 9635 9635 9635 9637 9642 9645 9646 9648 9650 9651 9650 9649 9653 9656 9659 9666 9673 9676 9679 9680 9680 9683 9691 9700 9706 9710 9717 9725 9731 9736 9743 9747 9752 9757 9762 9766 9772 9781 9793 9804 9809 9812 9822 9832 9839
9649 9647 9646 9644 9638 9630 9625 9623 9621 9620 9622 9623 9625 9627 9627 9625 9624 9624 9622 9623 9625 9628 9630 9632 9634 9635 9636 9637 9638 9640 9643 9645 9647 9653 9658 9660 9662 9663 9665 9672 9681 9688 9693 9698 9705 9711 9717 9721 9727 9732 9738 9744 9747 9750 9755 9763 9774 9784 9789 9794 9805 9814 9819
9641 9639 9637 9634 9628 9620 9615 9615 9613 9611 9612 9615 9615 9616 9616 9614 9614 9614 9612 9612 9615 9617 9618 9619 9621 9623 9624 9625 9627 9630 9632 9633 9636 9640 9643 9645 9648 9652 9658 9664 9670 9675 9681 9686 9690 9696 9702 9706 9711 9716 9722 9727 9731 9734 9738 9745 9755 9764 9770 9777 9788 9795 9799
9634 9631 9628 9623 9618 9612 9607 9607 9606 9604 9603 9605 9605 9604 9604 9604 9604 9604 9603 9602 9604 9606 9608 9609 9610 9611 9613 9615 9616 9618 9621 9623 9625 9628 9631 9634 9638 9644 9649 9654 9657 9661 9666 9671 9675 9682 9687 9692 9697 9702 9707 9712 9716 9719 9724 9731 9739 9747 9753 9760 9770 9776 9781
9626 9624 9619 9613 9608 9604 9602 9600 9599 9597 9596 9595 9595 9593 9594 9594 9594 9593 9593 9593 9594 9596 9598 9599 9599 9601 9603 9605 9606 9608 9610 9613 9615 9617 9620 9624 9628 9632 9636 9640 9643 9647 9652 9658 9663 9668 9673 9678 9683 9688 9692 9698 9702 9706 9712 9719 9725 9732 9739 9747 9755 9760 9766
9619 9616 9611 9604 9599 9597 9596 9595 9593 9590 9587 9586 9585 9585 9584 9584 9584 9584 9584 9585 9585 9587 9588 9589 9590 9591 9593 9595 9597 9598 9600 9602 9604 9607 9610 9613 9616 9619 9623 9627 9631 9636 9641 9645 9650 9655 9660 9665 9670 9674 9679 9684 9689 9694 9700 9707 9713 9720 9726 9733 9740 9745 9751
9611 9608 9603 9597 9592 9589 9588 9588 9587 9584 9580 9578 9577 9576 9576 9575 9576 9576 9576 9576 9577 9577 9579 9580 9580 9582 9584 9585 9587 9588 9590 9592 9594 9596 9599 9602 9605 9609 9612 9616 9619 9623 9627 9632 9637 9642 9647 9652 9657 9661 9666 9671 9676 9682 9687 9694 9700 9706 9712 9718 9723 9730 9737
9605 9602 9596 9590 9585 9582 9580 9580 9580 9577 9574 9572 9570 9569 9568 9568 9568 9568 9568 9568 9568 9569 9569 9570 9572 9573 9575 9576 9577 9579 9581 9583 9585 9587 9589 9592 9595 9598 9601 9604 9608 9612 9616 9621 9626 9630 9635 9640 9645 9650 9654 9659 9665 9669 9675 9681 9687 9692 9697 9703 9709 9716 9724
9596 9595 9591 9585 9580 9577 9574 9572 9572 9570 9567 9566 9564 9563 9562 9561 9560 9560 9560 9560 9560 9560 9561 9562 9564 9565 9566 9567 9569 9571 9572 9574 9576 9578 9580 9583 9585 9588 9591 9594 9598 9603 9607 9611 9616 9620 9625 9629 9634 9638 9643 9649 9653 9658 9663 9669 9675 9680 9685 9690 9696 9703 9709
9584 9585 9584 9580 9576 9572 9569 9567 9565 9563 9561 9560 9558 9557 9556 9555 9554 9553 9553 9553 9553 9553 9554 9555 9556 9557 9558 9560 9561 9563 9565 9567 9568 9570 9572 9574 9576 9579 9583 9586 9590 9594 9597 9601 9605 9609 9614 9618 9622 9627 9632 9637 9641 9646 9652 9657 9663 9668 9673 9679 9684 9690 9696
9578 9575 9573 9572 9569 9566 9564 9562 9559 9557 9555 9554 9552 9551 9549 9548 9547 9547 9546 9546 9546 9547 9548 9548 9549 9550 9551 9552 9554 9556 9558 9559 9561 9563 9565 9567 9569 9572 9575 9579 9582 9585 9588 9592 9596 9599 9604 9608 9612 9616 9621 9625 9630 9635 9641 9646 9651 9657 9663 9668 9673 9679 9685
9577 9571 9567 9565 9562 9559 9557 9556 9554 9551 9550 9548 9546 9545 9543 9542 9541 9541 9540 9540 9540 9541 9541 9542 9543 9544 9545 9546 9547 9549 9550 9552 9554 9556 9558 9560 9563 9566 9568 9571 9574 9577 9580 9584 9588 9592 9596 9600 9604 9607 9612 9616 9621 9626 9631 9636 9641 9647 9652 9657 9663 9669 9675
9571 9569 9564 9560 9558 9554 9551 9549 9548 9546 9544 9543 9541 9540 9538 9537 9536 9535 9535 9535 9535 9535 9536 9536 9537 9537 9538 9539 9541 9542 9543 9545 9547 9549 9551 9553 9556 9559 9561 9563 9566 9569 9573 9577 9580 9584 9588 9592 9596 9600 9604 9608 9612 9617 9622 9627 9631 9636 9641 9646 9652 9658 9663
9563 9562 9559 9556 9554 9550 9547 9544 9542 9541 9539 9537 9536 9534 9533 9532 9531 9530 9530 9530 9530 9530 9530 9530 9531 9532 9532 9534 9535 9536 9537 9539 9541 9543 9545 9547 9550 9552 9554 9556 9559 9563 9566 9570 9573 9577 9580 9584 9588 9592 9596 9600 9605 9609 9614 9618 9622 9626 9631 9637 9642 9647 9652
9561 9557 9553 9550 9548 9546 9543 9540 9537 9536 9534 9533 9531 9529 9528 9527 9526 9526 9525 9525 9525 9525 9525 9525 9525 9526 9527 9528 9529 9530 9532 9533 9535 9537 9539 9541 9544 9546 9548 9550 9553 9556 9560 9563 9566 9569 9573 9577 9580 9585 9589 9593 9598 9602 9605 9609 9613 9618 9623 9628 9633 9638 9644
9559 9555 9551 9547 9544 9541 9539 9536 9533 9531 9530 9528 9526 9525 9523 9523 9522 9521 9521 9520 9520 9520 9520 9520 9520 9521 9522 9523 9524 9525 9526 9528 9529 9531 9533 9536 9538 9540 9542 9544 9547 9550 9553 9556 9559 9562 9566 9570 9573 9577 9582 9586 9590 9594 9597 9602 9606 9611 9616 9621 9625 9631 9637
9554 9551 9547 9544 9541 9538 9535 9532 9529 9527 9525 9524 9522 9521 9519 9518 9518 9517 9517 9516 9516 9515 9515 9516 9516 9517 9517 9518 9519 9520 9521 9522 9524 9526 9528 9530 9533 9535 9537 9539 9542 9544 9547 9550 9553 9556 9560 9563 9567 9571 9575 9579 9583 9587 9592 9596 9601 9605 9610 9614 9619 9624 9630